Chetumal, Mexico

5:39 PM on April 19, 2018 (GMT +0000)
Chetumal International

Weather History for MMCM - August, 2014

Change the Weather History Date:

Wednesday, August 20, 2014

  Actual Average Record
Temperature  
Mean Temperature 88 °F -  
Max Temperature 97 °F 86 °F 97 °F (2014)
Min Temperature 79 °F 76 °F 72 °F (2017)
Cooling Degree Days 23    
Growing Degree Days 38 (Base 50)    
Moisture  
Dew Point 76 °F    
Average Humidity 67    
Maximum Humidity 79    
Minimum Humidity 41    
Precipitation  
Precipitation 0.00 in - - ()
Sea Level Pressure  
Sea Level Pressure 29.97 in    
Wind  
Wind Speed 7 mph ()    
Max Wind Speed 17 mph    
Max Gust Speed -    
Visibility 6.6 miles    
Events      
Averages and records for this station are not official NWS values.
T = Trace of Precipitation, MM = Missing Value Source: Averaged Metar Reports

Daily Weather History Graph

Daily Weather History Graph

Search for Another Location

Airport or City:

Astronomy

Aug. 20, 2014 Rise Set
Actual Time 6:36 AM CDT 7:16 PM CDT
Civil Twilight 6:13 AM CDT 7:39 PM CDT
Nautical Twilight 5:47 AM CDT 8:05 PM CDT
Astronomical Twilight 5:20 AM CDT 8:32 PM CDT
Moon 2:30 AM CDT (8/20) 3:47 PM CDT (8/20)
Length of Visible Light 13h 25m
Length of Day
12h 40m
Waning Crescent, 20% of the Moon is Illuminated
Aug 20
Waning Crescent
Aug 25
New
Sep 2
First Quarter
Sep 8
Full
Sep 15
Last Quarter

Hourly Weather History & Observations

Time (CDT) Temp. Heat Index Dew Point Humidity Pressure Visibility Wind Dir Wind Speed Gust Speed Precip Events Conditions
12:50 AM 84 °F - 77 °F 74% 29.96 in 5 mi East 6.7 mph - -   Partly Cloudy
6:16 AM 84.2 °F 92.3 °F 75.2 °F 74% 29.92 in 7.0 mi Calm Calm - N/A   Scattered Clouds
6:47 AM 84.2 °F 92.3 °F 75.2 °F 74% 29.94 in 7.0 mi Calm Calm - N/A   Scattered Clouds
6:50 AM 83 °F - 77 °F 78% 29.94 in 6 mi East 6.7 mph - -   Scattered Clouds
7:48 AM 84.2 °F 92.3 °F 75.2 °F 74% 29.96 in 7.0 mi Calm Calm - N/A   Scattered Clouds
8:40 AM 86.0 °F 95.1 °F 75.2 °F 70% 29.97 in 7.0 mi East 11.5 mph - N/A   Scattered Clouds
9:42 AM 87.8 °F 99.7 °F 77.0 °F 70% 29.97 in 7.0 mi East 9.2 mph - N/A   Scattered Clouds
9:50 AM 92 °F - 77 °F 54% 30.00 in 6 mi East 8.9 mph - -   Scattered Clouds
10:41 AM 87.8 °F 99.7 °F 77.0 °F 70% 30.00 in 7.0 mi ESE 11.5 mph - N/A   Scattered Clouds
11:45 AM 89.6 °F 102.2 °F 77.0 °F 66% 29.99 in 7.0 mi ESE 17.3 mph - N/A   Scattered Clouds
12:40 PM 89.6 °F 102.2 °F 77.0 °F 66% 30.00 in 7.0 mi ESE 17.3 mph - N/A   Scattered Clouds
12:50 PM 96 °F - 75 °F 41% 30.01 in 6 mi East 8.9 mph - -   Scattered Clouds
1:42 PM 89.6 °F 102.2 °F 77.0 °F 66% 29.97 in 7.0 mi ESE 17.3 mph - N/A   Partly Cloudy
2:43 PM 89.6 °F 102.2 °F 77.0 °F 66% 29.96 in 7.0 mi East 17.3 mph - N/A   Scattered Clouds
3:43 PM 89.6 °F 102.2 °F 77.0 °F 66% 29.96 in 7.0 mi East 11.5 mph - N/A   Scattered Clouds
3:50 PM 94 °F - 75 °F 46% 29.98 in 6 mi ESE 8.9 mph - -   Scattered Clouds
5:04 PM 89.6 °F 102.2 °F 77.0 °F 66% 29.94 in 7.0 mi East 11.5 mph - N/A   Scattered Clouds
5:41 PM 89.6 °F 102.2 °F 77.0 °F 66% 29.94 in 7.0 mi ESE 13.8 mph - N/A   Scattered Clouds
6:45 PM 89.6 °F 102.2 °F 77.0 °F 66% 29.96 in 7.0 mi ESE 13.8 mph - N/A   Mostly Cloudy
6:50 PM 89 °F - 76 °F 57% 29.96 in 6 mi East 8.9 mph - -   Scattered Clouds
7:41 PM 86.0 °F 96.9 °F 77.0 °F 74% 29.96 in 7.0 mi East 5.8 mph - N/A   Scattered Clouds
8:44 PM 84.2 °F 94.1 °F 77.0 °F 79% 29.99 in 7.0 mi East 6.9 mph - N/A   Scattered Clouds
9:50 PM 85 °F - 76 °F 67% 30.03 in 5 mi ENE 6.7 mph - -   Scattered Clouds